loading
|

SCOUT A DEB, 2353

Orbit data source: Space-Track

SCOUT A DEB, 2353 is space debris in LEO originally from a launch on Sat, 26 Mar 1966 UTC launched from the Air Force Western Test Range (AFWTR). Debris objects in space refer to the collection of defunct objects orbiting the Earth. Examples of debris include non-operational satellites, rocket bodies, and fragments generated from explosions, collisions, or faulty payload assembly.

Loading next visibility...
Loading greatness...
SCOUT A DEB details
Identifier
2353, 1966-024C
Orbit
LEO
Last TLE update2 days ago
Origin
Flag of USUSN BuWeps (US)
ManufacturerUnknown
MissionSpacecraft
Bus & MotorUnknown bus, Unknown motor
MassUnknown
Launch date (UTC)
1966-03-26 (59 years ago)
Launch vehicleUnknown
Launch site
Air Force Western Test Range (AFWTR)
Object type
Payload
Rocket body
Debris
Shape & HBRUnknown
Radar Cross SectionSmall (<0.1 m²)

Expand to show TLE details & history

TLE from 2 days ago
0 SCOUT A DEB
1 02353U 66024C   24275.39328617  .00001355  00000-0  12477-2 0  9997
2 02353  89.3772  54.1509 0153031 158.4341 202.3365 13.77018517929173
Epoch: 2024-10-01T09:26Z
Definitive object data (Epoch: 2024-10-01T09:26:19.925Z)
Latitude-0.00005°
Longitude-98.03977°
Altitude1,081.815 km
Speed7.259 km/s
True Right ascension03h 36m 36s
True Declination0° 00' 00"
Sunlit
Object was in full shadow at TLE epoch
Predictive object data (real-time)
Latitude-81.29801°
Longitude85.86983°
Altitude1,038.567 km
Speed7.314 km/s
Apparent Right ascension18h 32m 30s
Apparent Declination-63° 22' 18"
Sunlit
Object is in daylight
Predictive observer data (real-time)
Local Sidereal Time07:06:31
Azimuth170.62° S
Elevation-66.006°
Doppler factor1
Orbital elements
Apogee1,083.963 km
Perigee859.019 km
Semi-major axis7,349.628 km
Eccentricity0.0153031
Inclination89.3772°
RAAN54.1509°
Arg. of periapsis158.4341°
True anomaly201.68166°
Mean anomaly202.3365°
Eccentric anomaly202.00793°
Mean motion3.44465 °/min
BSTAR0.0012477
Period104.51 mins
No data available

SCOUT A DEB Visibility forecast

Observer location: 39.9160978°, -105.1181434

SCOUT A DEB is not visible in the next 10 days
Span
Click to sort rows by Start time (UTC) header in descending order
Start Az.
Max El. time (UTC)
Max El. Az.
Max El.
End time (UTC)
End Az.